Home   Weather   Colón   Past weeks

Flag for Panama Past Weather in Colón, Panama — Yesterday and Last 2 Weeks

Now
79 °F

Passing clouds.


Feels Like: 82 °F
Forecast: 78 / 87 °F
Wind: 6 mph from West

Location: Panama Airport

Current Time: Sep 28, 2016 at 2:06:51 AM

Latest Report: Sep 28, 2016 at 1:00 AM


Visibility: N/A

Pressure: 29.86 "Hg

Humidity: 89%

Dew Point: 75 °F

Location of ColónLocation

Past Weather in Colón — Graph

°F

Colón Temperature Yesterday

Maximum temperature yesterday: 90 °F (at 11:00 AM)
Minimum temperature yesterday: 75 °F (at 2:00 AM)
Average temperature yesterday: 80 °F

High & Low Weather Summary for the Past Weeks

 TemperatureHumidityPressure
High93 °F (Sep 18, 12:00 PM)100% (Sep 13, 2:00 AM)29.98 "Hg (Sep 13, 2:00 AM)
Low72 °F (Sep 16, 2:00 AM)59% (Sep 18, 12:00 PM)29.71 "Hg (Sep 19, 4:00 PM)
Average80 °F88%29.83 "Hg
* Reported Sep 13 1:00 AM — Sep 28 1:00 AM, Colón, Weather by CustomWeather, © 2016

Note: Actual official high and low records may vary slightly from our data, if they occured in-between our weather recording intervals... More about our weather records

Advertising

Colón Weather History for the Previous 24 Hours

Scroll right to see more
 ConditionsComfort  
Time TempWeatherWind HumidityBarometerVisibility
1:00 AM
Wed, Sep 28
79 °FPassing clouds.6 mph89%29.86 "HgN/A
12:00 AM79 °FPassing clouds.3 mph89%29.86 "HgN/A
11:00 PM
Tue, Sep 27
79 °FPassing clouds.3 mph89%29.86 "HgN/A
10:00 PM79 °FPassing clouds.6 mph94%29.86 "HgN/A
9:00 PM79 °FPassing clouds.5 mph94%29.86 "HgN/A
8:00 PM81 °FPassing clouds.5 mph89%29.83 "HgN/A
6:00 PM81 °FBroken clouds.6 mph84%29.77 "HgN/A
5:00 PM81 °FBroken clouds.7 mph79%29.77 "HgN/A
4:00 PM81 °FBroken clouds.7 mph79%29.77 "HgN/A
3:00 PM81 °FScattered showers. Broken clouds.7 mph74%29.77 "HgN/A
2:00 PM84 °FBroken clouds.12 mph74%29.80 "HgN/A
1:00 PM86 °FBroken clouds.9 mph75%29.80 "HgN/A
12:00 PM88 °FScattered clouds.9 mph70%29.83 "HgN/A
11:00 AM90 °FScattered clouds.5 mph67%29.86 "HgN/A
10:00 AM84 °FScattered clouds.5 mph79%29.86 "HgN/A
9:00 AM84 °FScattered clouds.No wind79%29.86 "Hg6 mi
8:00 AM79 °FMore clouds than sun.No wind89%29.83 "Hg6 mi
7:00 AM77 °FBroken clouds.5 mph94%29.83 "Hg5 mi
6:00 AM75 °FPassing clouds.No wind94%29.80 "Hg6 mi
5:00 AM75 °FPassing clouds.No wind94%29.80 "HgN/A
4:00 AM75 °FPassing clouds.No wind94%29.77 "HgN/A
3:00 AM75 °FPassing clouds.No wind94%29.77 "HgN/A
2:00 AM75 °FPassing clouds.No wind100%29.80 "HgN/A
Weather by CustomWeather, © 2016

See weather overviewHow to use our weather pages